Time,TemperatureF,DewpointF,PressureIn,WindDirection,WindDirectionDegrees,WindSpeedMPH,WindSpeedGustMPH,Humidity,HourlyPrecipIn,Conditions,Clouds,dailyrainin,SoftwareType,DateUTC
2013-03-24 00:56:00,75.1,72.6,29.86,SSW,202,0.0,2.0,92,0.00,,SCT065,0.00,VWS V14.00,2013-03-24 04:56:00,
2013-03-24 01:56:00,75.2,73.4,29.84,South,175,0.0,6.0,94,0.00,,SCT065,0.00,VWS V14.00,2013-03-24 05:56:00,
2013-03-24 02:56:00,74.9,73.4,29.81,SSE,168,2.0,9.0,95,0.00,,BKN060,0.00,VWS V14.00,2013-03-24 06:56:00,
2013-03-24 03:56:00,74.7,73.2,29.79,South,169,0.0,9.0,95,0.00,,BKN060,0.00,VWS V14.00,2013-03-24 07:56:00,
2013-03-24 04:56:00,74.6,73.1,29.78,SSE,148,0.0,11.0,95,0.00,,SCT060,0.00,VWS V14.00,2013-03-24 08:56:00,
2013-03-24 05:56:00,74.4,72.9,29.77,South,178,0.0,10.0,95,0.00,,SCT055,0.00,VWS V14.00,2013-03-24 09:56:00,
2013-03-24 06:56:00,74.2,72.7,29.76,SW,236,2.0,11.0,95,0.00,,SCT055,0.00,VWS V14.00,2013-03-24 10:56:00,
2013-03-24 07:56:00,74.4,72.2,29.75,SW,217,4.0,7.0,93,0.00,,BKN050,0.00,VWS V14.00,2013-03-24 11:56:00,
2013-03-24 08:56:00,77.5,73.0,29.75,SSW,192,0.0,15.0,86,0.00,,SCT008,0.00,VWS V14.00,2013-03-24 12:56:00,
2013-03-24 09:56:00,80.2,72.7,29.74,SW,219,5.0,17.0,78,0.00,,BKN015,0.00,VWS V14.00,2013-03-24 13:56:00,
2013-03-24 10:56:00,82.3,72.4,29.75,SW,217,4.0,23.0,72,0.00,,BKN025,0.00,VWS V14.00,2013-03-24 14:56:00,
2013-03-24 11:56:00,85.3,71.8,29.74,SSE,162,3.0,24.0,64,0.00,,BKN034,0.00,VWS V14.00,2013-03-24 15:56:00,
2013-03-24 12:56:00,86.2,71.2,29.73,WSW,256,22.0,29.0,61,0.00,,BKN045,0.00,VWS V14.00,2013-03-24 16:56:00,
2013-03-24 13:56:00,87.6,71.0,29.72,SW,236,7.0,26.0,58,0.00,,BKN045,0.00,VWS V14.00,2013-03-24 17:56:00,
2013-03-24 14:56:00,89.0,70.2,29.69,SW,221,6.0,29.0,54,0.00,,BKN055,0.00,VWS V14.00,2013-03-24 18:56:00,
2013-03-24 15:56:00,88.6,68.2,29.67,West,265,10.0,26.0,51,0.00,,BKN065,0.00,VWS V14.00,2013-03-24 19:56:00,
2013-03-24 16:56:00,87.2,69.1,29.67,SSE,160,4.0,29.0,55,0.00,,BKN060,0.00,VWS V14.00,2013-03-24 20:56:00,
2013-03-24 17:56:00,85.6,69.1,29.67,WSW,242,10.0,25.0,58,0.00,,SCT055,0.00,VWS V14.00,2013-03-24 21:56:00,
2013-03-24 19:56:00,80.9,69.8,29.72,WNW,284,0.0,21.0,69,0.00,,BKN250,0.00,VWS V14.00,2013-03-24 23:56:00,
2013-03-24 20:56:00,78.7,66.4,29.74,NNW,331,12.0,14.0,66,0.00,,,0.00,VWS V14.00,2013-03-25 00:56:00,
2013-03-24 21:56:00,73.5,68.4,29.75,NW,309,0.0,12.0,84,0.00,,,0.00,VWS V14.00,2013-03-25 01:56:00,
2013-03-24 22:56:00,72.3,69.8,29.75,WNW,290,0.0,6.0,92,0.00,,BKN055,0.01,VWS V14.00,2013-03-25 02:56:00,
2013-03-24 23:57:00,72.3,70.5,29.75,WNW,290,0.0,0.0,94,0.00,,-RA,0.01,VWS V14.00,2013-03-25 03:57:00,